Location: Hurecourt
(47.9030°N, 6.0653°E)
Time: 07:38:34
(UTC+00:00)

X-37B - Visible Passes

Search period start: 23 September 2020 00:00
Search period end: 03 October 2020 00:00
Orbit: 386 x 387 km, 45.0° (Epoch: 18 September)

Date Brightness Start Highest point End Pass type
(mag) Time Alt. Az. Time Alt. Az. Time Alt. Az.
23 Sep 2.6 03:23:00 20° SSE 03:23:00 20° SSE 03:24:21 10° SE visible
24 Sep 2.7 03:59:50 15° SSW 03:59:50 15° SSW 04:01:11 10° SSE visible
02 Oct 3.2 19:10:29 10° SSW 19:10:54 12° SSW 19:10:54 12° SSW visible
